History for Miami, FL

Thursday, December 13, 2012 — View Current Conditions

Jump to Data:

Date:
Airport Code:
Recently Viewed Airport Codes: KMIA
Daily Summary
  Actual Average Record
Temperature
Mean Temperature 74°F 71°F  
Max Temperature 82°F 78°F 89°F (1900)
Min Temperature 66°F 64°F 33°F (1934)
Degree Days
Heating Degree Days 0 1  
Month to date heating degree days 0 9  
Since 1 July heating degree days 1 12  
Cooling Degree Days 9 7  
Month to date cooling degree days 140 96  
Year to date cooling degree days 4580 4468  
Growing Degree Days 24 (Base 50)    
Moisture
Dew Point 68°F    
Average Humidity 84    
Maximum Humidity 93    
Minimum Humidity 74    
Precipitation
Precipitation 0.00 in 0.07 in 0.87 in (1997)
Month to date precipitation 0.30 0.90  
Year to date precipitation 86.73 60.76  
Snow
Snow 0.00 in in in ()
Month to date snowfall 0.0  
Since 1 July snowfall 0.0  
Snow Depth 0.00 in    
Sea Level Pressure
Sea Level Pressure 30.08 in    
Wind
Wind Speed 5 mph (NW)    
Max Wind Speed 13 mph    
Max Gust Speed 18 mph    
Visibility 10 miles    
Events      
T = Trace of Precipitation, MM = Missing Value Source: NWS Daily Summary

Show full METARS

(help) - Comma Delimited File

Hourly Observations

Time(EST) Temperature Dew Point Humidity Sea Level Pressure Visibility Wind Direction Wind Speed Gust Speed Precipitation Events Conditions
12:53 AM 73.9°F 71.1°F 91% 30.07 in 10.0 miles Calm Calm - N/A   Scattered Clouds
1:53 AM 73.0°F 71.1°F 93% 30.06 in 10.0 miles Calm Calm - N/A   Mostly Cloudy
2:53 AM 73.9°F 71.1°F 91% 30.06 in 10.0 miles Calm Calm - N/A   Mostly Cloudy
3:53 AM 72.0°F 70.0°F 93% 30.05 in 10.0 miles Calm Calm - N/A   Scattered Clouds
4:53 AM 72.0°F 70.0°F 93% 30.04 in 10.0 miles South 3.5 mph - N/A   Partly Cloudy
5:53 AM 72.0°F 70.0°F 93% 30.06 in 10.0 miles Calm Calm - N/A   Partly Cloudy
6:53 AM 73.0°F 70.0°F 90% 30.07 in 10.0 miles WSW 4.6 mph - N/A   Partly Cloudy
7:53 AM 75.0°F 72.0°F 90% 30.09 in 10.0 miles Calm Calm - N/A   Mostly Cloudy
8:53 AM 77.0°F 72.0°F 84% 30.10 in 10.0 miles SW 4.6 mph - N/A   Scattered Clouds
9:53 AM 78.1°F 72.0°F 81% 30.11 in 10.0 miles SW 6.9 mph - N/A   Mostly Cloudy
10:27 AM 80.6°F 69.8°F 70% 30.11 in 10.0 miles West 6.9 mph - N/A   Mostly Cloudy
10:53 AM 80.1°F 71.1°F 74% 30.10 in 10.0 miles Variable 5.8 mph - N/A   Mostly Cloudy
11:03 AM 80.6°F 69.8°F 70% 30.10 in 10.0 miles WSW 6.9 mph - N/A   Mostly Cloudy
11:45 AM 78.8°F 69.8°F 74% 30.10 in 10.0 miles NW 9.2 mph 17.3 mph N/A   Mostly Cloudy
11:53 AM 80.1°F 71.1°F 74% 30.10 in 10.0 miles NW 8.1 mph 18.4 mph N/A   Mostly Cloudy
12:53 PM 79.0°F 70.0°F 74% 30.07 in 10.0 miles NW 10.4 mph 20.7 mph N/A   Mostly Cloudy
1:53 PM 75.0°F 68.0°F 79% 30.06 in 10.0 miles NNW 10.4 mph 19.6 mph N/A   Mostly Cloudy
2:53 PM 73.0°F 66.9°F 81% 30.07 in 10.0 miles NNW 9.2 mph - N/A   Overcast
3:53 PM 72.0°F 66.0°F 81% 30.06 in 10.0 miles North 9.2 mph 17.3 mph N/A   Overcast
3:56 PM 73.4°F 66.2°F 78% 30.06 in 10.0 miles North 9.2 mph 17.3 mph N/A   Overcast
6:19 PM 71.6°F 64.4°F 78% 30.08 in 10.0 miles North 6.9 mph - N/A   Overcast
6:53 PM 71.6°F 64.4°F 78% 30.09 in 10.0 miles Variable 5.8 mph - N/A   Overcast
7:53 PM 71.6°F 64.4°F 78% 30.10 in 10.0 miles North 8.1 mph - N/A   Overcast
8:53 PM 71.1°F 64.0°F 78% 30.10 in 10.0 miles North 9.2 mph 16.1 mph N/A   Overcast
9:53 PM 69.1°F 63.0°F 81% 30.11 in 10.0 miles NNW 6.9 mph - N/A   Overcast
10:53 PM 68.0°F 63.0°F 84% 30.11 in 10.0 miles NNW 6.9 mph - N/A   Mostly Cloudy
11:53 PM 66.0°F 62.1°F 87% 30.10 in 10.0 miles NNW 9.2 mph - N/A   Mostly Cloudy